CAPE
1455 1362 1440 1531 1842 2166 2494 2780 2909 3019 2799 2459 2277 2090 2115 1994 1918 1955 1949 1863 1687 1531 1571 1249 1476 1518 1455 1397 1676 1417 1313 1389 1079 1053 1016 1165 995 781 613 479 328 215 210
1316 1574 1687 1777 1903 2292 2642 3016 3160 3207 2988 2867 2690 2486 2315 2109 2368 2370 2288 2283 2100 1912 1880 1826 1676 1219 689 613 1123 1305 1205 1302 1264 860 952 799 599 950 741 834 628 442 290
1064 1448 1857 2025 2096 2307 2827 2999 3372 3397 3352 3126 2904 2830 2757 2535 2188 2235 2066 2019 2260 2212 1909 1825 1703 1810 1390 1012 1011 922 881 1179 1195 1250 848 756 656 533 501 637 497 589 454
881 1167 1466 1961 1898 1996 2432 3026 3420 3512 3435 3348 2878 2764 2681 2501 1903 1771 1856 2145 1953 1512 1859 1718 1846 1857 1867 1452 1314 1551 1081 620 585 777 1221 984 915 782 516 304 362 628 599
414 602 878 1329 1277 1232 1608 2450 3259 3538 3493 3508 3377 2969 2731 1969 1588 1261 1334 1837 1546 1909 2060 2042 1840 1931 1935 1709 1763 1711 1709 1580 1062 594 502 924 980 1139 1017 688 439 232 615
328 404 519 746 885 1078 1282 1777 3061 3492 3675 3460 3482 3138 2961 2482 1859 1104 529 23 0 0 0 6 167 761 1399 1339 1433 1524 1494 1419 1648 1572 1391 588 640 874 1025 962 890 567 374
272 335 418 586 1013 988 1192 1532 2772 3728 3588 3437 2977 2755 2108 1245 664 346 49 67 0 0 0 96 156 131 208 312 427 706 1103 1385 1345 1432 1538 1440 974 682 698 835 837 610 622
510 564 754 837 855 920 1190 1791 3161 3242 2440 1778 1546 1244 927 372 178 70 101 10 0 0 19 25 41 93 125 130 223 156 288 600 938 1249 1311 1296 1258 1501 671 698 816 589 547
745 891 1014 750 726 1058 1875 1727 2154 1704 1436 1300 1083 826 518 320 116 88 50 0 0 0 0 13 31 40 56 86 144 59 139 290 500 725 938 1152 1354 1206 1311 948 423 807 605
961 986 1031 664 1045 1383 1615 1146 1421 1336 1081 804 504 270 202 58 38 12 0 0 0 0 3 10 24 27 43 51 95 55 58 187 141 301 485 720 914 1095 1030 1046 846 451 415
1268 1165 1255 937 1206 1415 1247 937 1016 1113 746 411 248 64 9 0 0 0 0 0 0 0 5 9 11 10 9 14 48 47 78 45 86 182 296 402 528 755 966 890 941 1143 1212
1165 1232 1419 1280 1237 1071 889 710 757 732 488 258 44 8 0 0 0 0 0 0 0 2 9 18 47 17 28 27 22 18 12 13 31 105 201 251 455 605 675 781 810 915 1246
649 1109 1282 1077 1121 878 760 684 676 519 302 63 0 0 0 0 0 0 0 0 0 9 19 32 18 20 27 30 34 45 31 20 15 89 138 175 251 331 595 639 669 867 1049
796 960 858 1102 1112 891 790 760 647 374 138 18 0 0 0 0 0 0 0 0 10 41 55 47 33 36 26 29 38 35 9 0 1 4 14 68 93 164 448 590 649 735 952
844 1019 923 1139 1118 967 975 848 611 281 97 9 0 0 0 0 0 0 4 12 62 64 68 81 53 37 17 34 23 9 3 2 7 5 5 5 4 75 380 546 611 649 858
289 878 1172 1269 1319 1189 1148 870 516 282 54 3 0 0 0 0 0 0 7 43 85 117 69 68 32 16 23 11 0 0 2 2 4 3 4 4 9 22 116 391 596 627 871
0 230 1074 1422 1498 1378 1158 768 374 158 30 2 0 0 0 0 0 0 5 117 70 70 50 34 25 30 18 0 0 0 2 2 2 2 5 9 18 26 203 368 382 448 403
0 0 582 1361 1479 1307 927 383 194 56 25 25 13 0 0 0 0 78 116 138 71 87 86 10 25 16 8 3 0 0 4 3 4 5 3 4 13 176 409 453 560 544 587
36 149 408 1296 1322 1076 642 279 120 60 52 39 30 0 0 4 69 49 167 242 54 56 17 21 36 20 19 0 0 0 2 6 6 7 4 92 154 285 233 464 564 619 667
307 597 815 991 1075 795 412 336 224 155 113 82 20 0 0 146 67 63 143 237 69 43 58 35 44 51 0 0 0 0 1 5 3 4 9 85 230 227 193 345 568 619 739
651 852 985 975 864 401 404 463 313 279 208 141 37 8 16 121 76 25 188 184 61 54 66 54 39 24 0 0 0 0 3 3 2 120 217 253 157 117 77 212 601 528 504
811 1024 1053 792 397 570 643 626 397 354 319 232 63 89 7 36 4 101 265 172 65 67 88 57 32 1 0 0 0 0 0 1 3 20 7 0 0 1 0 0 1 1 154
927 991 796 423 310 794 928 900 890 697 509 352 212 390 175 39 126 217 341 264 83 92 45 26 20 12 1 1 0 6 0 0 0 0 1 0 1 2 2 1 1 1 0
794 797 648 360 631 960 1266 1200 1230 989 850 592 509 525 252 298 181 102 14 43 72 88 30 46 17 8 4 0 1 0 10 13 44 0 0 0 0 0 3 2 1 3 3
654 940 761 625 660 1188 1450 1423 1247 1090 912 751 570 553 146 0 54 50 30 23 38 6 8 2 1 0 0 6 1 0 4 0 45 19 5 0 0 0 0 2 1 0 0
3 470 824 973 924 1158 1359 1208 328 88 466 495 584 434 109 17 16 53 85 8 3 0 0 0 0 0 0 0 1 2 0 1 55 77 73 57 29 0 0 0 4 8 0
CIN
-10 -35 -40 -38 -19 -18 -20 -16 -4 -1 -1 -6 -4 -2 -1 -3 0 -2 -1 -1 -1 -4 0 -15 -9 -2 0 -1 -2 -4 -8 -10 -6 -6 -19 -3 -10 -21 -4 -21 -37 -38 -33
-18 -14 -22 -20 -9 -9 -11 -8 -3 -1 -4 -1 -2 -1 -1 -3 -3 -1 -2 -1 -1 -2 -3 -2 -7 -18 -34 -7 -15 -9 -12 -10 -9 -12 -5 -23 -22 -17 -8 -7 -14 -31 -31
-22 -33 -23 -18 -4 -1 -7 -4 -1 -1 -1 -1 -1 -1 -1 -1 -5 -3 -2 -6 0 0 -2 -3 -8 -3 -8 -20 -30 -38 -18 -4 -6 -3 -5 -4 -45 -3 -7 -4 -5 -15 -23
-38 -38 -47 -42 -38 -25 -8 -3 -2 -1 -1 -2 -5 -1 -2 -5 -4 -2 -2 -1 -1 -2 -1 -3 -4 -3 -1 -3 -3 -3 -29 -19 -22 -15 -1 -17 -10 -5 -7 -4 -4 -10 -36
-3 -58 -61 -44 -48 -51 -45 -23 -4 -1 0 -5 -7 -2 -3 -2 -2 -3 -1 -2 -7 -11 0 -4 -2 0 -2 -4 -4 -3 -1 -1 -15 -15 -16 -5 -5 -7 0 -3 -7 -2 -4
-3 -16 -63 -72 -66 -45 -38 -41 -20 -15 -11 -17 -14 -21 -24 -34 -35 -45 -54 -130 0 0 0 -129 -63 -23 -1 -2 -3 -4 -4 -6 -2 -2 -12 -32 -4 -2 -2 0 -1 -1 -3
-6 -16 -56 -70 -72 -55 -43 -43 -42 -18 -16 -18 -22 -29 -54 -100 -94 -101 -199 -210 0 0 0 -167 -109 -118 -62 -30 -10 -1 -2 -3 -5 -5 -1 -2 -22 -34 -4 -1 -1 -2 -3
-3 -8 -28 -68 -66 -59 -62 -43 -37 -38 -69 -98 -115 -134 -149 -119 -169 -238 -257 -291 0 0 -314 -293 -243 -162 -120 -98 -44 -68 -30 -1 -2 -1 -5 -3 -3 -4 -31 -14 0 0 -7
-4 -15 -34 -73 -75 -64 -63 -76 -95 -116 -113 -134 -155 -156 -189 -216 -276 -328 -380 0 0 0 0 -371 -302 -241 -197 -145 -81 -134 -53 -6 -1 -1 -2 -3 -2 -2 -1 -11 -32 -5 -1
-5 -12 -39 -81 -72 -61 -81 -91 -117 -133 -143 -155 -168 -212 -265 -366 -407 -265 0 0 0 0 0 -1 -245 -170 -186 -149 -103 -150 -137 -53 -39 -2 -1 0 -1 -2 -1 0 -14 -42 -15
-2 -4 -9 -48 -54 -65 -87 -108 -130 -161 -191 -192 -226 -352 -422 0 0 0 0 0 0 0 -1 -1 0 -1 -1 0 -95 -85 -82 -112 -118 -61 -17 -5 -10 -1 -1 -2 -1 -1 0
-4 -3 -5 -12 -39 -54 -88 -129 -166 -186 -190 -245 -370 -458 0 0 0 0 0 0 -1 0 0 -57 -123 -2 -2 -3 -1 -8 0 -86 -227 -140 -86 -51 -1 0 -1 -2 -2 -1 -1
-19 -2 -2 -27 -55 -54 -95 -131 -193 -201 -253 -349 0 0 0 0 0 0 0 0 -1 0 -1 -2 -3 -3 -2 -2 -1 0 0 0 0 -177 -164 -97 -31 -4 0 0 -2 -3 -2
-19 -13 -14 -41 -65 -73 -109 -146 -179 -213 -289 -395 0 0 0 0 0 0 0 0 -1 -119 -101 -125 -2 -119 -1 0 -1 0 -6 0 0 0 -26 -165 -107 -27 0 -1 0 -4 -4
-40 -18 -21 -56 -81 -80 -97 -137 -179 -242 -316 -431 0 0 0 0 0 0 0 -1 -59 -78 -78 -73 -166 -3 -1 -1 -5 -4 -2 0 0 0 0 0 -129 -79 0 0 0 -2 -3
-85 -51 -8 -56 -61 -61 -79 -109 -194 -231 -308 -277 0 0 0 0 0 0 -1 -70 -40 -38 -69 -124 -90 -1 -2 -8 0 -3 0 0 0 0 0 0 0 -160 -31 -2 -2 -2 -3
0 -105 -53 -27 -38 -50 -57 -98 -170 -221 -296 -76 0 0 0 0 0 0 -30 -14 -38 -83 -118 -109 -2 -2 -3 0 0 0 0 0 0 0 0 0 0 -117 -5 -3 -8 -7 -13
0 0 -43 -4 -9 -26 -42 -109 -153 -229 -240 -245 -271 0 0 0 0 -50 -5 -6 -59 -111 -143 -3 -1 -2 -8 -32 -2 0 0 0 0 0 0 0 -86 -4 -1 -3 -1 -3 -5
-156 -107 -53 -7 -4 -17 -59 -108 -151 -183 -191 -210 -219 0 0 -17 -92 -38 -10 -5 -102 -89 -5 -1 -1 -9 -11 0 -1 0 0 0 0 0 0 -8 -2 -8 -24 -5 -5 -3 -1
-54 -48 -50 -33 -16 -18 -73 -91 -107 -130 -148 -155 -189 0 0 -92 -79 -24 -2 -9 -74 -5 -4 -1 -8 -8 0 0 0 0 0 0 0 -9 -115 -17 -4 -9 -27 -10 -4 -3 -1
-45 -42 -36 -13 -9 -51 -72 -76 -84 -91 -117 -126 -178 -224 -189 -66 -35 -29 -3 -5 -17 -7 -6 -2 -13 -16 0 0 0 0 0 0 -44 -15 -5 -3 -11 -18 -28 -19 -3 -12 -11
-23 -33 -8 -10 -24 -51 -66 -54 -61 -64 -98 -109 -153 -131 -85 -60 -2 -4 -1 -4 -26 -9 -4 -6 -4 -2 0 0 0 0 0 0 0 -14 -34 0 0 0 0 0 -6 -38 -36
-6 -5 -8 -27 -39 -41 -45 -38 -35 -58 -82 -93 -99 -27 -50 -53 -3 -2 -7 -3 -8 -4 -2 -1 -11 -8 -65 -15 0 -54 0 0 0 0 0 0 0 0 0 0 0 0 0
-1 -2 -1 -2 -14 -8 -19 -26 -12 -45 -45 -50 -36 -10 -35 -3 -8 -17 -2 -2 -1 -4 -8 -30 -26 -40 -73 0 -23 0 -78 -53 -4 -5 0 0 0 0 0 0 0 0 0
-15 -3 -1 -1 -2 -1 -1 -2 -2 -10 -19 -11 -7 -2 -31 0 -31 -11 -5 -5 -44 -33 -25 -55 -22 0 0 -55 -30 0 -61 -30 -43 -28 -32 0 0 0 0 0 0 0 0
-2 -25 -1 -1 -2 -3 -4 -9 -114 -3 -10 -50 -2 -6 -5 -20 -2 -2 -55 -214 -16 0 0 0 0 0 0 0 -56 -74 0 -51 -69 -24 -10 -20 -19 0 0 0 0 0 0
Wind_Speed
20 19 19 19 19 18 17 16 14 13 12 11 10 10 8 7 6 5 3 1 3 5 6 4 8 6 5 8 27 3 4 6 7 8 18 21 19 29 33 27 27 29 24
19 20 19 18 18 16 16 15 14 12 11 11 11 9 9 8 8 6 8 5 2 3 5 5 8 10 17 14 18 9 11 9 8 10 13 21 25 9 23 24 22 24 25
18 19 19 19 17 15 13 12 12 12 11 10 10 9 9 8 8 7 9 11 7 7 6 6 9 9 8 9 12 10 11 16 24 12 9 15 16 24 24 19 18 25 29
15 15 15 13 14 14 13 10 10 10 10 10 8 8 8 13 18 18 19 16 12 13 11 11 13 14 14 15 13 12 13 15 13 14 8 11 13 26 34 23 18 20 26
14 14 14 12 12 11 12 10 8 8 8 8 8 9 9 11 17 19 19 17 18 14 15 14 14 15 18 20 19 18 18 19 18 17 16 20 16 14 21 29 33 21 19
13 12 12 11 10 10 9 9 6 6 7 8 9 10 14 16 19 24 26 27 31 30 28 28 30 30 26 25 26 26 26 25 24 25 25 22 25 22 20 21 23 32 31
14 14 13 12 10 10 8 6 4 4 5 7 9 12 16 19 22 26 29 32 34 33 32 33 32 31 31 32 32 32 31 31 30 28 27 27 27 25 24 24 23 24 17
12 11 12 11 11 9 7 3 2 3 5 9 12 15 18 21 24 28 32 33 33 31 34 33 31 31 31 31 31 33 35 35 32 33 32 31 30 29 30 30 36 35 43
13 11 11 11 11 9 6 4 0 3 5 9 13 17 20 24 27 31 33 33 34 34 34 34 33 32 32 32 33 33 35 36 37 37 34 35 34 34 33 37 40 49 48
12 12 11 11 9 8 6 4 1 2 6 10 14 18 21 25 29 32 33 34 33 33 34 33 33 33 33 33 34 36 36 37 38 39 40 37 35 37 38 36 33 30 52
8 10 11 10 9 7 6 4 2 3 6 10 15 19 23 28 30 32 33 34 34 33 32 32 33 33 34 35 38 39 39 41 44 43 42 42 40 38 39 42 41 40 38
4 8 10 8 8 7 5 4 3 5 8 12 16 20 25 29 32 33 34 35 35 33 33 33 33 34 35 38 41 44 44 49 51 49 48 48 43 41 39 40 44 46 43
5 4 7 8 7 7 6 5 5 6 10 13 18 22 26 29 32 33 34 34 33 33 34 34 35 35 38 42 44 45 49 51 53 55 51 48 48 46 44 41 41 41 43
10 6 6 6 6 7 7 7 7 8 11 15 19 24 27 31 32 34 34 33 33 34 32 34 35 38 42 45 46 46 50 56 56 54 52 50 49 49 45 44 42 39 39
13 9 7 7 7 8 8 8 8 10 13 17 21 25 28 30 32 33 33 33 33 32 35 37 36 38 44 44 54 55 55 54 50 49 46 51 54 51 48 44 42 39 38
18 14 10 9 9 9 9 9 9 12 15 19 22 26 29 30 31 30 33 33 32 34 35 37 37 43 42 52 54 54 55 47 45 48 43 47 51 53 52 45 43 39 36
22 17 13 10 10 10 10 10 10 12 15 19 23 25 27 28 28 30 31 32 33 34 35 36 37 41 46 54 57 63 54 41 44 37 28 36 39 42 42 36 41 45 40
28 20 12 9 9 9 9 9 9 12 15 19 22 24 25 26 29 29 29 30 32 34 36 35 37 40 47 56 61 62 49 36 27 38 14 20 34 37 34 32 32 39 39
25 20 11 8 7 7 7 7 9 12 15 18 22 22 24 26 28 29 30 29 31 31 33 35 36 43 49 56 60 57 48 40 25 26 11 7 18 34 33 30 31 31 30
21 15 9 5 4 4 4 6 9 12 16 19 21 22 23 23 27 28 29 28 28 28 33 35 37 43 50 56 55 47 41 33 11 5 2 25 34 31 31 28 30 27 25
19 12 6 4 3 4 4 7 10 13 16 18 20 22 22 22 24 25 26 27 27 27 30 33 37 40 48 55 53 48 38 35 2 24 5 27 28 28 28 27 24 26 26
17 11 8 6 5 5 7 10 12 14 16 19 21 21 21 20 23 25 26 27 25 25 29 35 38 40 46 50 49 47 39 39 27 17 19 18 15 14 15 18 21 23 25
16 12 9 8 8 8 9 11 13 14 16 19 21 21 21 21 21 24 25 23 23 24 32 35 38 40 41 44 38 39 34 33 32 25 18 17 16 14 11 11 15 19 24
18 14 13 12 11 11 12 14 14 14 16 19 20 20 20 20 20 22 21 24 26 28 30 31 34 36 38 41 35 33 33 32 27 27 23 24 22 19 15 14 14 14 15
23 21 16 15 16 14 14 15 15 15 16 19 21 20 20 17 17 16 20 21 23 24 27 27 30 32 36 35 29 29 29 27 21 15 14 28 26 21 19 18 19 18 17
26 24 21 20 20 19 15 12 18 25 22 24 20 20 22 21 17 16 18 20 18 20 23 24 28 29 28 21 30 30 25 26 25 20 20 12 17 23 19 19 21 20 18
Wind_Direction
122 122 124 123 124 127 128 130 128 122 122 127 127 140 139 138 147 137 136 127 196 214 229 252 237 291 288 233 237 238 229 220 222 308 303 299 299 287 278 288 288 283 290
128 129 129 127 128 123 123 121 122 110 106 110 128 109 105 92 52 69 26 25 350 280 251 265 264 297 321 280 231 238 227 228 228 306 315 304 296 267 288 287 290 290 290
135 137 137 137 134 128 117 112 109 104 98 113 80 76 63 63 49 44 21 8 0 347 331 308 299 296 297 272 252 276 256 290 266 222 288 311 304 296 296 291 293 287 286
142 141 139 135 134 129 123 104 99 96 91 90 86 71 47 16 1 1 358 0 357 346 338 329 327 325 322 319 306 294 267 287 279 268 254 247 284 297 287 296 298 291 285
158 154 149 142 137 127 121 107 87 78 66 67 67 44 40 25 5 359 357 355 348 341 342 334 333 329 327 322 318 311 304 302 295 287 266 286 287 279 289 290 287 292 288
167 166 159 148 145 136 124 113 79 53 50 42 38 31 8 2 356 348 344 341 336 333 332 330 326 326 325 322 318 313 309 305 301 300 294 285 288 280 281 284 287 284 285
174 173 173 169 162 155 144 123 82 56 50 36 22 11 0 355 350 345 340 336 332 329 327 327 326 324 321 318 314 312 308 304 301 298 294 291 284 277 265 275 275 283 277
180 184 180 182 177 171 162 141 93 37 18 9 2 357 356 352 348 344 337 334 332 331 328 327 328 326 324 321 318 313 308 305 301 296 293 290 287 283 274 271 274 274 270
183 182 185 185 182 181 182 182 167 357 350 349 349 348 349 347 343 339 337 335 331 330 328 326 326 326 324 322 318 314 310 307 302 298 294 288 285 284 282 278 280 274 263
178 179 182 184 188 188 188 188 210 329 341 343 343 344 345 344 341 338 336 335 333 331 329 327 326 325 324 322 318 314 311 307 304 300 295 291 286 282 281 279 277 264 271
178 183 183 184 189 189 188 195 219 319 335 340 342 342 342 340 338 338 336 334 332 331 330 329 327 325 324 322 318 315 312 307 302 297 294 289 286 283 279 278 277 277 276
194 190 186 187 195 200 206 221 272 312 330 336 338 339 340 338 336 336 335 334 332 332 330 328 327 326 324 321 317 313 310 306 301 296 291 286 285 281 277 275 274 275 277
315 225 198 200 208 214 222 244 286 307 324 330 333 335 336 336 336 335 335 335 334 332 331 329 328 328 326 321 318 315 310 307 301 296 289 285 280 278 275 272 271 272 273
313 279 231 232 229 235 240 262 281 307 321 328 331 333 334 334 334 335 336 335 334 333 333 332 330 329 327 323 320 318 314 309 303 297 290 283 278 275 273 270 267 267 268
312 291 256 256 250 249 255 267 284 307 320 325 328 331 333 333 335 335 336 336 336 335 335 333 332 330 329 326 321 318 315 312 304 299 293 284 275 270 268 267 264 262 263
313 304 281 268 260 251 258 265 286 305 318 323 327 331 332 335 336 337 337 337 338 338 336 336 334 331 331 328 327 323 318 312 307 300 297 286 272 264 262 262 260 259 258
312 305 289 267 262 255 258 266 286 307 317 323 328 331 335 337 340 339 339 340 340 340 340 340 338 336 334 331 328 313 315 315 306 309 304 292 278 267 263 263 259 255 256
312 311 296 270 260 258 255 270 292 308 318 324 329 333 337 340 342 342 342 342 344 344 344 345 343 341 340 334 329 314 318 317 315 295 292 298 280 265 263 263 260 252 253
320 317 303 278 265 250 251 270 296 311 319 325 329 335 338 340 343 343 343 345 348 349 351 351 349 344 344 342 324 324 315 314 325 316 236 235 291 265 264 262 255 254 255
328 326 315 287 249 238 247 280 303 313 319 325 332 336 338 342 341 343 344 349 351 353 353 353 354 351 349 349 327 317 310 284 334 308 293 220 242 260 259 259 252 254 260
328 330 322 290 255 254 267 294 308 314 322 328 332 335 338 340 341 343 347 349 350 354 355 357 356 356 357 348 337 328 322 310 312 261 46 267 265 267 263 259 259 261 267
322 321 310 292 281 276 279 297 308 318 324 327 329 332 335 337 337 338 343 347 351 356 358 357 356 356 360 350 345 342 342 347 333 311 341 329 322 308 281 272 268 271 274
315 309 297 289 285 280 283 294 305 314 320 324 326 330 333 334 335 336 341 347 355 359 357 357 356 355 4 360 339 342 345 354 11 1 350 16 12 10 354 324 300 287 278
317 308 299 289 285 284 286 293 300 307 315 319 324 327 329 331 336 339 347 349 352 356 356 0 359 359 5 349 341 342 347 353 1 13 18 33 32 26 15 7 355 338 321
318 312 302 292 289 285 288 295 298 296 307 319 321 324 327 332 337 339 350 354 359 2 0 7 2 2 1 342 331 339 348 350 347 344 356 25 26 18 17 14 9 2 354
315 311 303 296 293 292 286 300 325 312 323 324 318 321 325 331 334 343 354 1 13 15 18 17 9 13 22 340 342 343 344 349 355 360 7 359 14 27 22 18 19 13 9